Regional Weather Roundup
Issued by NWS

Home | Current Version | Previous Version | Graphics & Text | Print | Product List | Glossary On
Versions: 1 2 3 4 5 6 7 8 9 10 11 12 13 14 15 16 17 18 19 20 21 22 23 24 25 26 27 28 29 30 31 32 33 34 35 36 37 38 39 40 41 42 43 44 45 46 47 48 49 50
000
ASUS43 KLOT 230403
RWRIL

ILLINOIS REGIONAL WEATHER ROUNDUP
NATIONAL WEATHER SERVICE CHICAGO/ROMEOVILLE IL
1100 PM CDT SUN APR 22 2018

NOTE: "FAIR" INDICATES FEW OR NO CLOUDS BELOW 12,000 FEET WITH NO
SIGNIFICANT WEATHER AND/OR OBSTRUCTIONS TO VISIBILITY.

* THESE STATIONS ARE NOT UNDER NWS QUALITY CONTROL. THEY ALSO MAY NOT
  REPORT WEATHER SUCH AS PRECIPITATION OR FOG.

ILZ001-002-007-009-015-016-024-230500-
NORTHWEST ILLINOIS

CITY           SKY/WX    TMP DP  RH WIND       PRES   REMARKS
MOLINE         FAIR      55  27  34 E15       30.19S
STERLING*      FAIR      51  28  41 E15       30.21F
SAVANNA*       FAIR      48  28  46 NE8       30.22F
$$

ILZ003-004-008-010-011-017-018-230500-
NORTH CENTRAL ILLINOIS

CITY           SKY/WX    TMP DP  RH WIND       PRES   REMARKS
ROCKFORD       MOCLDY    50  25  37 E14       30.26F
FREEPORT*      FAIR      46  27  47 CALM      30.26S
ROCHELLE*      FAIR      46  29  52 E9        30.24S
DE KALB*       FAIR      45  28  51 NE7       30.24F
PERU*          FAIR      51  31  45 E13       30.21S
$$

ILZ005-006-012>014-019>023-230500-
NORTHEAST ILLINOIS

CITY           SKY/WX    TMP DP  RH WIND       PRES   REMARKS
CHICAGO-OHARE  MOCLDY    46  28  49 NE12      30.23F
CHICAGO-MIDWAY MOCLDY    50  29  44 E9        30.24F
AURORA         FAIR      47  26  44 NE10      30.23F
LANSING*       FAIR      41  36  80 NE3       30.24S
JOLIET*        FAIR      49  30  48 NE9       30.22F
WAUKEGAN       FAIR      44  27  51 NE8       30.25F
DUPAGE AIRPORT FAIR      45  28  51 NE9       30.23F
KANKAKEE*      FAIR      44  32  63 NE9       30.22S
WHEELING       FAIR      45  29  53 NE6       30.27F
MORRIS*        FAIR      46  30  54 NE6       30.21F
ROMEOVILLE*    FAIR      46  30  52 NE13      30.23F
NORTHERLY ISL    N/A     41  33  73 N8          N/A
$$

LMZ740>746-230500-
SOUTHERN LAKE MICHIGAN

STATION/POSITION SKY/WX   TEMP    WIND        PRES    VSBY  WAVE
                          AIR SEA DIR/SP/G                  HT/PER
                          (F)     (DEG/KT/KT) (MB)    (MI)  (FT/S)
HARRISON CRIB              43      50/ 17/ 18   N/A
BURNHAM HARBOR             41     360/  7/ 13   N/A
CALUMET HARBOR             42      20/  9/ 13 1023.6F
BURNS HARBOR               42      70/  8/ 10 1024.4F
MICHIGAN CITY              42      30/  8/  8   N/A
$$

ILZ025>027-034>036-040-047-049-050-058-095>099-230500-
WEST-CENTRAL ILLINOIS

CITY           SKY/WX    TMP DP  RH WIND       PRES   REMARKS
QUINCY         CLOUDY    59  28  30 NE13      30.10F
GALESBURG*     FAIR      56  32  40 NE13      30.18S
MACOMB*        CLOUDY    51  32  48 NE12      30.17S
JACKSONVILLE*  CLOUDY    56  32  40 NE12      30.10F
PITTSFIELD*    CLOUDY    60  32  34 NE12G17   30.10F
$$

ILZ028>032-037-038-041>044-048-051>054-059>061-230500-
CENTRAL ILLINOIS

CITY           SKY/WX    TMP DP  RH WIND       PRES   REMARKS
PONTIAC        FAIR      47  32  55 NE14      30.20S
BLOOMINGTON    FAIR      48  33  56 NE13      30.17S
DECATUR        FAIR      55  33  43 NE15      30.12S
PEORIA         FAIR      53  30  41 NE12      30.17F
LACON*         FAIR      51  28  41 NE9       30.18S
LINCOLN*       FAIR      55  35  46 E12       30.14S
SPRINGFIELD    MOCLDY    58  33  39 E14       30.11F
TAYLORVILLE    CLOUDY    58  33  38 E14G20    30.09F
$$

ILZ033-039-045-046-055>057-062-063-230500-
EAST-CENTRAL ILLINOIS

CITY           SKY/WX    TMP DP  RH WIND       PRES   REMARKS
CHAMPAIGN      FAIR      54  32  43 NE14      30.14S
DANVILLE*      FAIR      53  33  47 NE10      30.14S
RANTOUL*       FAIR      53  35  49 NE12G18   30.16S
MATTOON        CLOUDY    57  36  45 E15       30.09F
PARIS*         FAIR      56  34  42 E12       30.13F
$$

ILZ079-100>102-230500-
SOUTHWEST ILLINOIS

CITY           SKY/WX    TMP DP  RH WIND       PRES   REMARKS
CAHOKIA*       CLOUDY    57  53  86 E8        30.04F
SPARTA*        DRIZZLE   56  56 100 E14       30.02S
$$

ILZ064>066-069>071-074>076-080>082-084>086-088>090-092>094-230500-
SOUTH-CENTRAL ILLINOIS

CITY           SKY/WX    TMP DP  RH WIND       PRES   REMARKS
CARBONDALE     LGT RAIN  57  55  93 E10G20    29.99S
CAIRO*         RAIN      57  56  97 NE12      29.93F
EFFINGHAM*     CLOUDY    59  37  44 NE6       30.08F
MARION         LGT RAIN  56  56  99 E13G18    30.00F
MT. VERNON     LGT RAIN  57  52  83 NE6       30.03F
CENTRALIA*     CLOUDY    59  51  74 NE8       30.03F
SALEM*         LGT RAIN  59  45  59 NE5       30.05F
METROPOLIS*    RAIN      58  56  94 E8        29.95F
$$

ILZ067-068-072-073-078-083-087-091-230500-
SOUTHEAST ILLINOIS

CITY           SKY/WX    TMP DP  RH WIND       PRES   REMARKS
LAWRENCEVILLE  CLOUDY    61  36  39 NE12      30.06F
FLORA*         DRIZZLE   59  44  58 NE8       30.06S
FAIRFIELD*     CLOUDY    57  49  74 NE5       30.03F
HARRISBURG*    LGT RAIN  57  55  95 NE8       30.01F
ROBINSON*      CLOUDY    60  31  33 E10       30.08F
CARMI*         LGT RAIN  56  53  87 NE7       30.02F
$$

ABBREVIATIONS USED IN REMARKS
   TC - TEMPERATURE IN CELSIUS
  WCI - WIND CHILL INDEX
   HX - HEAT INDEX
  VSB - VISIBILITY
$$





USA.gov is the U.S. government's official web portal to all federal, state and local government web resources and services.